Location: Cargill Incorporated Elevator
(42.7294°N, 93.7333°W)
Time: 12:46:14
(UTC+00:00)

Helios 1A Rocket - Pass Details

Date: 20 April 2026
Orbit: 406 x 416 km, 98.3° (Epoch: 11 May)

Event Time Altitude Azimuth Distance (km) Brightness Sun altitude
Rises 02:29:52 0° 6° (N) 2,379 6.4 -15.5°
Reaches altitude 10° 02:31:55 10° 0° (N) 1,507 5.5 -15.8°
Maximum altitude 02:34:59 43° 288° (WNW) 598 3.5 -16.3°
Drops below altitude 10° 02:38:01 10° 215° (SW) 1,486 5.0 -16.7°
Sets 02:40:03 0° 208° (SSW) 2,340 6.0 -17.1°
